Location: Centerville
(32.8776°N, 96.6203°W)
Time: 00:43:49
(UTC+00:00)

Cosmos 1627 Rocket - Pass Details

Date: 17 June 2021
Orbit: 950 x 1004 km, 82.9° (Epoch: 01 August)

Event Time Altitude Azimuth Distance (km) Brightness Sun altitude
Exits shadow 08:33:17 61° 181° (S) 1,112 4.5 -26.2°
Maximum altitude 08:34:32 88° 95° (E) 992 4.4 -26.1°
Drops below altitude 10° 08:40:54 10° 6° (N) 2,767 7.7 -25.4°
Sets 08:43:27 0° 7° (N) 3,725 8.5 -25.1°
